Kenai, AK

9:19 AM AKST on February 19, 2018 (GMT -0900)
Kenai Municipal

Weather History for PAEN - September, 2012

Change the Weather History Date:

Sunday, September 23, 2012

  Actual Average Record
Temperature  
Mean Temperature 49 °F -  
Max Temperature 52 °F 51 °F 64 °F (1951)
Min Temperature 46 °F 35 °F 16 °F (1992)
Degree Days  
Heating Degree Days 16    
Moisture  
Dew Point 48 °F    
Average Humidity 94    
Maximum Humidity 100    
Minimum Humidity 86    
Precipitation  
Precipitation 0.32 in - - ()
Sea Level Pressure  
Sea Level Pressure 29.54 in    
Wind  
Wind Speed 7 mph (SE)    
Max Wind Speed 13 mph    
Max Gust Speed -    
Visibility 10 miles    
Events Rain    
Averages and records for this station are not official NWS values.
T = Trace of Precipitation, MM = Missing Value Source: NWS Daily Summary

Daily Weather History Graph

Daily Weather History Graph

Search for Another Location

Airport or City:

Trip Planner

Search our weather history database for the weather conditions in past years. The results will help you decide how hot, cold, wet, or windy it might be!

Date:

Astronomy

Sep. 23, 2012 Rise Set
Actual Time 7:53 AM AKDT 7:59 PM AKDT
Civil Twilight 7:10 AM AKDT 8:41 PM AKDT
Nautical Twilight 6:20 AM AKDT 9:32 PM AKDT
Astronomical Twilight 5:24 AM AKDT 10:27 PM AKDT
Moon 5:31 PM AKDT (9/23) No Moon Set
Length of Visible Light 13h 30m
Length of Day
12h 06m
First Quarter, 61% of the Moon is Illuminated
Sep 23
First Quarter
Sep 29
Full
Oct 7
Last Quarter
Oct 15
New
Oct 21
First Quarter

Hourly Weather History & Observations

Time (AKDT) Temp. Windchill Dew Point Humidity Pressure Visibility Wind Dir Wind Speed Gust Speed Precip Events Conditions
12:53 AM 50.0 °F - 46.9 °F 89% 29.34 in 10.0 mi NE 8.1 mph - N/A   Clear
1:53 AM 51.1 °F - 46.9 °F 86% 29.35 in 10.0 mi ENE 8.1 mph - 0.01 in Rain Light Rain
2:53 AM 50.0 °F - 48.0 °F 93% 29.36 in 7.0 mi ENE 6.9 mph - 0.06 in Rain Rain
3:53 AM 48.9 °F - 48.0 °F 97% 29.35 in 10.0 mi NE 10.4 mph - 0.01 in Rain Light Rain
4:53 AM 48.9 °F - 48.0 °F 97% 29.35 in 10.0 mi NE 11.5 mph - 0.00 in   Mostly Cloudy
5:53 AM 48.0 °F - 48.0 °F 100% 29.37 in 10.0 mi NNE 8.1 mph - 0.05 in   Scattered Clouds
6:53 AM 48.0 °F - 48.0 °F 100% 29.39 in 10.0 mi NE 6.9 mph - 0.01 in Rain Light Rain
7:53 AM 48.9 °F - 48.0 °F 97% 29.39 in 10.0 mi NNE 10.4 mph - 0.01 in   Mostly Cloudy
8:53 AM 48.9 °F - 48.0 °F 97% 29.42 in 10.0 mi NE 9.2 mph - 0.00 in   Overcast
9:53 AM 50.0 °F - 48.9 °F 96% 29.45 in 10.0 mi NE 5.8 mph - N/A   Overcast
10:53 AM 50.0 °F - 48.9 °F 96% 29.47 in 10.0 mi Calm Calm - 0.01 in Rain Light Rain
11:53 AM 51.1 °F - 48.9 °F 92% 29.50 in 10.0 mi Calm Calm - 0.04 in Rain Light Rain
12:53 PM 52.0 °F - 50.0 °F 93% 29.52 in 9.0 mi Calm Calm - 0.04 in Rain Light Rain
1:53 PM 52.0 °F - 48.0 °F 86% 29.55 in 10.0 mi SW 4.6 mph - 0.03 in Rain Light Rain
2:06 PM 51.8 °F - 48.2 °F 88% 29.55 in 10.0 mi SW 3.5 mph - 0.00 in Rain Light Rain
2:38 PM 51.8 °F - 48.2 °F 88% 29.56 in 8.0 mi South 3.5 mph - 0.01 in Rain Light Rain
2:53 PM 51.1 °F - 48.9 °F 92% 29.57 in 7.0 mi Calm Calm - 0.03 in Rain Light Rain
3:53 PM 51.1 °F - 50.0 °F 96% 29.59 in 10.0 mi Calm Calm - 0.01 in Rain Light Rain
4:53 PM 52.0 °F - 51.1 °F 97% 29.61 in 10.0 mi SE 3.5 mph - 0.01 in   Overcast
5:53 PM 52.0 °F - 48.9 °F 89% 29.63 in 10.0 mi South 5.8 mph - 0.00 in   Overcast
6:16 PM 51.8 °F - 50.0 °F 94% 29.63 in 10.0 mi SSW 5.8 mph - N/A   Overcast
6:33 PM 51.8 °F - 50.0 °F 94% 29.63 in 10.0 mi South 3.5 mph - N/A   Overcast
6:53 PM 51.1 °F - 50.0 °F 96% 29.65 in 10.0 mi SSE 4.6 mph - N/A   Overcast
7:12 PM 51.8 °F - 50.0 °F 94% 29.64 in 10.0 mi South 4.6 mph - 0.00 in   Overcast
7:53 PM 50.0 °F - 48.9 °F 96% 29.67 in 10.0 mi South 8.1 mph - 0.00 in   Overcast
8:05 PM 50.0 °F - 48.2 °F 94% 29.66 in 10.0 mi South 9.2 mph - N/A   Overcast
8:12 PM 50.0 °F - 48.2 °F 94% 29.67 in 10.0 mi SSW 11.5 mph - N/A   Overcast
8:53 PM 50.0 °F - 48.9 °F 96% 29.70 in 10.0 mi SSW 9.2 mph - N/A   Overcast
9:53 PM 48.9 °F - 46.9 °F 93% 29.73 in 10.0 mi South 9.2 mph - N/A   Overcast
10:53 PM 46.9 °F - 44.1 °F 90% 29.75 in 10.0 mi South 12.7 mph - N/A   Overcast
11:53 PM 46.4 °F 41.5 °F 44.6 °F 93% 29.75 in 10.0 mi SSE 10.4 mph - N/A   Overcast